map of VCA home
VCA - Airport
Location
City:  Cân Tho, Vietnam
Name:Cân Tho International Airport
Old (Alt.):Trà Nóc International Airport
ICAO:VVCT
IATA:VCA

Details
Type:Airport (Aerodrome, Airfield)
Use:International (customs port of entry)
Latitude:10°05'06"N (10.085119)
Longitude:105°42'43"E (105.711922)
Datum:WGS 1984
Elevation:9 ft (3 m)
Variation:0.37°W (WMM2015 magnetic declination)
-0.02° annual change
Runways:1
Longest:7886 × 100 ft (2404 × 30.5 m), paved

Time
Time Zone:UTC+7
Local Time:

Weather
METAR:VVCT 280630Z 24007KT 190V270 9999 BKN015 FEW017TCU 32/25 Q1008 NOSIG TCU/OVER RWY
TAF:VVCT 280500Z 2806/2906 20008KT 9999 SCT015 SCT040
TEMPO 2806/2811 3000 TSRA BKN015 SCT017CB

Related Locations
Nearby:
Farthest:SPDC: 12430 mi / 20005 km
Chicosa [Chicosa Airport], UCA, PE

Find:

   beyond  
but within

Other Information
Maps:
NOTAMs:
Links:
Sources:

  
flag of Vietnam   

Sectional Chart

Flight Planning
at skyvector.com

Satellite Image

Google Maps Satellite view

 

Copyright © 2004-2017 Karl L. Swartz. All rights reserved.
The Great Circle Mapper name and logo are trademarks of the Great Circle Mapper.
All other trademarks mentioned herein belong to their respective owners.
Please see credits for attibutions and further copyright information.

  Follow gcmap on Facebook Follow gcmap on Twitter Follow gcmap on Google+ GCmap on LinkedIn

hCard Microformat

Geo Microformat